Location: ?????
(44.4284°N, 135.2222°E)
Time: 09:52:50
(UTC+00:00)

DELTA 2 R/B (1) - Pass Details

Date: 19 January 2026
Orbit: 786 x 800 km, 39.6° (Epoch: 10 February)

Event Time Altitude Azimuth Distance (km) Brightness Sun altitude
Rises 11:14:51 0° 266° (W) 3,282 7.7 -36.2°
Reaches altitude 10° 11:17:24 10° 261° (W) 2,350 6.7 -36.6°
Enters shadow 11:19:49 25° 250° (WSW) 1,534 5.4 -37.0°
